EUTELSAT HOT BIRD 13E

Last updated on Sept. 28, 2020, 5:45 a.m. UTC

1 28946U 06007B   20271.84825073  .00000065  00000-0  00000-0 0  9992
2 28946   0.0714 249.5989 0007304 299.2124 136.6527  1.00273517 53365
UTC
Height (km)
Latitude
Longitude
Inclination
Orbital Period
UTC large
Height (km)
Speed (km/s)
/
Latitude / Longitude
Inclination (degrees)
Orbital Period (minutes)
Azimuth
Elevation
Range (km)
Doppler Factor
iOS Compass Heading
iOS Angle

Next 30 passes for location: Hong Kong

Rise time Rise Azimuth (degrees) Set time Set Azimuth (degrees) Duration Max altitude (degrees)

No matching passes for this satellites